Temp
5 5 5 4 4 4 5 5 5 5 5 5 5 5 6 6 6 6 6 6 6 6 6 6 5 5 5 5 5 5 5 5 5 4 5 5 5 6 6 6 6 6 6
3 3 3 3 3 3 3 3 3 3 3 4 4 5 5 5 6 6 6 5 5 5 6 6 6 5 5 5 5 5 5 5 5 4 4 4 5 6 6 6 6 6 6
2 2 2 2 2 2 2 3 3 3 3 3 4 4 4 4 4 5 5 5 5 5 5 5 5 5 5 5 5 5 5 4 5 5 4 4 4 6 5 5 5 6 5
1 1 1 2 2 2 2 2 2 2 2 1 2 3 3 4 4 4 4 4 4 5 5 5 5 5 5 5 5 4 4 4 4 4 4 3 4 5 5 5 5 5 5
1 1 2 2 2 2 2 2 2 2 1 1 1 2 2 3 3 4 4 4 4 4 4 4 4 4 5 5 5 4 4 4 4 4 4 4 3 4 4 4 5 4 4
1 1 1 1 1 1 1 1 1 1 1 1 1 1 1 1 3 3 3 4 4 4 4 4 4 4 4 4 4 4 4 4 3 4 3 3 3 4 4 3 4 3 3
0 0 1 1 1 0 -1 -2 -1 -0 -0 -0 -0 -1 -0 0 2 3 3 3 3 4 4 4 4 4 4 4 4 4 3 3 3 3 3 3 3 3 4 3 3 3 3
-0 0 -0 -0 -0 -1 -1 -2 -3 -2 -2 -1 -1 -1 -1 1 1 2 2 2 3 2 2 2 3 3 3 3 3 3 3 3 3 3 2 2 3 2 3 3 2 2 3
-1 -0 -1 -1 0 -0 -1 -2 -3 -3 -3 -2 -1 -1 -0 0 1 1 2 2 3 3 2 2 2 2 2 2 2 2 3 3 3 3 3 3 3 2 2 2 2 2 2
-1 -0 0 1 1 -0 -1 -2 -2 -2 -3 -2 -2 -1 -1 -0 -0 0 1 1 1 2 2 2 1 1 1 1 1 1 1 2 2 2 2 3 3 3 2 2 2 1 2
-0 0 1 1 1 0 -1 -2 -2 -2 -2 -3 -1 -1 -1 -2 -1 -1 -1 -0 0 1 1 1 1 1 1 1 1 1 1 1 1 1 1 1 1 2 2 2 2 2 1
1 1 1 1 1 1 -1 -3 -3 -2 -3 -3 -1 -1 -2 -2 -2 -1 -1 -0 0 0 1 1 1 0 -0 -0 -0 -0 -0 -0 -0 0 0 1 0 1 1 0 1 1 1
1 1 1 1 2 1 -1 -2 -2 -2 -3 -4 -2 -2 -1 -1 -1 -1 -1 -1 -1 -0 -0 -0 -0 -0 -1 -1 -1 -1 -1 -0 -0 -1 -1 -0 -1 -1 -1 -0 -0 1 1
2 2 1 1 1 1 0 1 0 -2 -3 -3 -3 -2 -2 -2 -2 -2 -3 -3 -3 -2 -1 -1 -1 -1 -1 -1 -1 -1 -1 -2 -2 -2 -2 -2 -1 -1 -1 -1 -1 -0 0
2 2 1 1 1 1 1 1 1 1 1 -1 -2 -1 -1 -2 -2 -2 -3 -3 -3 -2 -2 -2 -2 -2 -2 -2 -2 -2 -2 -2 -2 -2 -3 -3 -2 -2 -1 -1 -1 -1 -0
2 2 2 2 1 1 1 1 1 1 1 1 1 1 0 0 1 0 -0 -1 -1 -2 -2 -2 -2 -2 -2 -2 -2 -2 -2 -2 -2 -3 -3 -3 -2 -2 -2 -1 -1 -1 -1
2 2 2 2 2 2 2 2 2 1 1 1 1 1 1 1 1 1 1 0 -0 -1 -2 -2 -2 -2 -2 -2 -3 -3 -3 -3 -3 -3 -3 -3 -2 -2 -2 -2 -1 -1 -1
3 2 2 2 2 2 2 2 2 2 2 2 2 2 2 2 1 1 0 1 1 0 -0 -1 -1 -1 -2 -2 -2 -2 -2 -3 -3 -4 -3 -3 -3 -3 -3 -3 -2 -2 -1
3 3 3 3 2 2 2 2 2 2 2 2 2 1 1 1 1 1 1 1 0 0 1 1 0 -1 -1 -2 -2 -2 -2 -3 -3 -3 -4 -3 -3 -3 -3 -3 -3 -2 -2
4 3 3 3 3 2 2 2 2 2 2 2 2 1 1 1 1 1 1 1 1 1 1 0 0 1 -1 -2 -2 -2 -3 -3 -3 -3 -3 -3 -3 -3 -3 -3 -2 -2 -2
4 4 3 3 3 3 2 2 2 2 2 2 2 2 1 1 1 1 1 0 0 0 -0 -0 -0 -0 -0 -1 -2 -2 -2 -2 -3 -3 -3 -3 -3 -3 -3 -3 -2 -2 -2
4 3 3 3 3 2 2 2 2 2 2 2 2 1 1 1 1 1 1 0 0 -0 -0 -0 -1 -1 -1 -1 -1 -2 -2 -3 -3 -3 -3 -3 -3 -3 -3 -3 -3 -3 -3
3 3 3 3 3 3 3 2 2 2 1 1 1 1 1 1 1 1 1 0 -0 -0 -1 -1 -1 -1 -1 -2 -2 -2 -2 -3 -3 -3 -3 -3 -3 -3 -3 -3 -3 -3 -3
4 4 4 3 3 3 3 2 2 2 1 1 1 1 1 1 1 0 0 -0 -1 -1 -1 -1 -2 -2 -2 -2 -3 -3 -3 -3 -3 -3 -3 -4 -4 -4 -4 -4 -4 -4 -4
4 4 4 3 3 2 2 2 2 2 1 1 1 1 1 0 0 -0 -0 -1 -1 -1 -1 -2 -2 -2 -2 -3 -3 -4 -4 -4 -4 -4 -4 -4 -4 -4 -4 -5 -5 -5 -5
3 4 3 3 2 2 3 2 2 2 2 1 1 1 1 0 -0 -1 -1 -1 -1 -2 -2 -2 -2 -3 -3 -3 -4 -4 -4 -4 -4 -5 -5 -5 -5 -5 -5 -5 -5 -5 -6
Height
3116 3114 3112 3110 3109 3108 3106 3105 3104 3104 3103 3103 3102 3102 3102 3104 3104 3106 3108 3110 3112 3115 3117 3120 3123 3125 3127 3129 3130 3132 3133 3135 3137 3137 3137 3137 3138 3139 3141 3143 3145 3146 3146
3109 3108 3106 3102 3099 3097 3095 3093 3092 3092 3091 3090 3090 3089 3090 3091 3093 3095 3097 3099 3101 3104 3106 3108 3111 3115 3116 3120 3122 3123 3124 3127 3129 3130 3131 3129 3131 3133 3135 3136 3138 3140 3141
3103 3101 3099 3095 3092 3088 3085 3082 3080 3078 3077 3077 3076 3077 3077 3078 3081 3084 3086 3088 3089 3090 3093 3095 3098 3102 3104 3107 3112 3115 3116 3118 3120 3122 3123 3121 3120 3126 3128 3129 3130 3132 3133
3097 3093 3089 3086 3083 3079 3075 3070 3067 3063 3061 3062 3061 3061 3062 3064 3069 3070 3073 3076 3077 3078 3080 3083 3086 3090 3093 3095 3100 3104 3107 3110 3110 3112 3114 3114 3115 3115 3116 3119 3122 3123 3124
3090 3087 3083 3078 3074 3068 3062 3057 3052 3048 3046 3045 3046 3046 3047 3049 3052 3055 3058 3061 3064 3065 3067 3070 3073 3077 3081 3085 3088 3092 3094 3099 3098 3102 3106 3105 3106 3105 3106 3109 3114 3115 3118
3086 3082 3077 3071 3066 3060 3052 3044 3036 3032 3031 3031 3031 3030 3032 3034 3036 3040 3044 3047 3050 3052 3055 3057 3060 3065 3069 3073 3076 3080 3084 3086 3090 3092 3093 3095 3096 3097 3097 3097 3103 3099 3107
3081 3077 3073 3068 3059 3050 3042 3033 3024 3020 3018 3018 3019 3021 3021 3021 3023 3026 3029 3032 3035 3038 3042 3045 3049 3053 3057 3061 3065 3068 3072 3074 3077 3080 3082 3083 3084 3088 3088 3089 3091 3093 3096
3076 3073 3066 3058 3048 3041 3034 3028 3018 3014 3009 3009 3012 3014 3013 3015 3015 3016 3018 3020 3023 3026 3029 3033 3036 3040 3044 3048 3052 3056 3060 3063 3065 3068 3070 3072 3073 3076 3078 3079 3082 3081 3084
3073 3067 3060 3052 3047 3042 3035 3026 3016 3009 3005 3002 3004 3007 3009 3009 3010 3009 3009 3010 3013 3016 3020 3024 3026 3029 3033 3036 3039 3043 3047 3050 3053 3056 3058 3060 3062 3064 3067 3069 3071 3072 3071
3068 3063 3059 3054 3049 3042 3034 3025 3015 3007 3002 3000 3002 3004 3004 3004 3003 3003 3004 3005 3006 3008 3011 3016 3019 3022 3025 3027 3029 3032 3036 3038 3041 3043 3045 3048 3050 3052 3055 3056 3059 3060 3060
3067 3064 3059 3054 3048 3039 3030 3019 3009 3005 3002 3000 3001 3003 3003 3002 3001 3001 3001 3002 3003 3005 3007 3010 3013 3015 3018 3020 3022 3024 3027 3029 3032 3033 3034 3036 3038 3039 3041 3044 3047 3048 3050
3067 3062 3057 3053 3045 3038 3028 3014 3004 3003 3002 3001 3002 3002 3002 3002 3002 3002 3003 3003 3003 3003 3004 3006 3008 3010 3013 3015 3017 3019 3021 3022 3024 3026 3026 3027 3028 3029 3031 3032 3034 3037 3039
3065 3061 3056 3051 3045 3038 3028 3017 3008 3005 3004 3002 3002 3002 3003 3002 3002 3003 3002 3003 3003 3003 3003 3004 3005 3006 3007 3009 3011 3013 3014 3015 3016 3017 3018 3019 3020 3020 3021 3023 3023 3026 3028
3062 3059 3055 3051 3045 3039 3032 3023 3014 3009 3006 3006 3005 3004 3003 3002 3001 3001 3000 3000 3000 3000 3001 3002 3003 3004 3005 3006 3007 3007 3007 3007 3008 3008 3008 3009 3009 3010 3011 3012 3014 3016 3017
3060 3058 3054 3051 3047 3042 3037 3030 3023 3016 3012 3009 3007 3006 3004 3002 3001 3000 2999 2998 2997 2998 2998 2999 2999 3000 3000 3001 3001 3000 3000 2999 2999 2999 2999 3000 3000 3000 3002 3002 3005 3005 3007
3059 3057 3054 3051 3048 3044 3040 3035 3029 3024 3020 3016 3013 3010 3007 3005 3002 2999 2997 2995 2994 2995 2995 2996 2996 2996 2997 2996 2995 2995 2994 2993 2992 2991 2991 2991 2992 2992 2992 2993 2996 2999 2999
3057 3056 3054 3051 3049 3045 3041 3037 3033 3029 3024 3021 3018 3015 3012 3009 3007 3004 3000 2997 2995 2994 2992 2992 2991 2991 2991 2991 2990 2990 2989 2987 2985 2983 2983 2984 2985 2985 2985 2986 2987 2990 2993
3056 3055 3053 3051 3048 3045 3041 3038 3034 3031 3027 3023 3020 3018 3015 3012 3009 3007 3005 3002 2998 2995 2992 2990 2988 2987 2987 2986 2985 2984 2984 2982 2980 2978 2978 2978 2979 2979 2979 2981 2981 2982 2984
3054 3053 3051 3049 3047 3044 3041 3038 3035 3031 3028 3024 3021 3019 3016 3013 3010 3007 3004 3002 2999 2996 2993 2990 2987 2984 2983 2982 2980 2979 2978 2977 2976 2975 2975 2975 2975 2975 2976 2976 2976 2976 2976
3052 3050 3049 3047 3044 3043 3040 3037 3034 3031 3028 3025 3021 3019 3016 3013 3010 3007 3004 3001 2998 2995 2992 2989 2986 2983 2980 2978 2976 2975 2973 2972 2971 2970 2970 2970 2970 2970 2970 2969 2970 2969 2969
3048 3047 3046 3044 3042 3040 3037 3035 3032 3029 3027 3023 3020 3017 3014 3012 3009 3006 3003 3001 2998 2995 2992 2989 2985 2982 2979 2977 2975 2973 2972 2970 2968 2965 2965 2964 2964 2964 2964 2963 2962 2960 2960
3044 3043 3041 3040 3038 3036 3034 3032 3029 3027 3024 3021 3019 3016 3014 3011 3008 3005 3002 2999 2996 2994 2990 2987 2984 2981 2978 2976 2974 2972 2969 2967 2965 2963 2962 2961 2960 2959 2958 2956 2955 2954 2953
3040 3039 3038 3036 3034 3032 3030 3029 3026 3023 3020 3018 3015 3012 3010 3007 3004 3001 2999 2995 2993 2990 2988 2985 2982 2979 2977 2974 2972 2970 2968 2965 2963 2961 2960 2958 2957 2955 2953 2952 2950 2949 2947
3033 3032 3031 3030 3028 3025 3025 3022 3019 3016 3015 3013 3011 3008 3005 3002 2999 2997 2995 2992 2990 2987 2985 2982 2980 2977 2975 2972 2970 2967 2965 2962 2960 2958 2955 2953 2951 2949 2947 2945 2943 2941 2938
3027 3025 3024 3024 3023 3019 3018 3016 3013 3013 3011 3009 3005 3003 3000 2998 2995 2993 2990 2988 2986 2983 2980 2978 2975 2973 2970 2967 2965 2962 2960 2957 2955 2953 2951 2949 2946 2944 2942 2939 2936 2934 2932
3020 3019 3018 3017 3016 3012 3012 3010 3007 3006 3004 3001 2999 2996 2994 2991 2989 2987 2985 2983 2980 2977 2974 2972 2969 2967 2965 2962 2960 2957 2955 2953 2950 2947 2945 2943 2940 2938 2935 2932 2929 2926 2923
Wind_Speed
32 34 36 37 38 39 41 42 43 43 44 45 48 50 51 52 52 52 53 54 54 54 53 52 50 49 45 43 40 37 36 35 33 33 34 33 31 28 27 26 25 22 21
30 31 33 36 38 39 40 42 43 42 41 43 46 49 51 53 55 54 54 55 55 54 55 56 54 52 51 48 46 42 41 38 37 36 36 40 36 33 32 30 27 25 23
24 27 30 33 37 40 43 45 47 47 47 46 48 48 49 51 52 52 53 53 56 57 57 56 57 55 55 53 50 47 45 41 41 39 38 42 45 36 34 33 31 29 28
27 31 34 37 40 44 47 50 52 55 55 53 52 52 52 51 49 50 49 50 53 58 60 59 58 57 56 56 55 52 47 49 48 44 42 43 45 42 40 38 34 33 31
29 30 31 31 30 32 37 46 53 57 58 58 57 56 56 55 51 48 49 48 48 53 58 60 60 60 58 55 55 55 55 49 46 51 48 40 45 50 46 48 44 36 33
20 21 28 31 30 31 34 35 40 42 46 45 47 48 48 50 52 48 47 47 48 49 53 57 59 60 60 58 55 53 54 55 51 47 51 52 48 48 50 47 51 39 36
19 22 26 25 28 32 34 35 29 30 36 38 35 33 33 35 38 43 44 45 47 49 49 52 54 56 58 59 58 55 53 54 55 53 48 52 52 49 53 47 45 51 42
20 23 29 28 34 37 39 38 30 20 22 27 26 24 23 29 30 33 36 36 40 46 48 48 50 52 53 56 57 57 55 53 54 57 54 50 52 54 53 51 51 45 47
20 24 27 32 33 34 34 33 29 21 22 17 23 24 26 24 26 25 28 29 33 39 43 44 44 45 46 49 52 55 56 54 54 55 58 60 57 54 53 54 54 49 43
21 25 26 28 29 32 33 33 27 20 21 13 14 17 15 16 16 17 19 24 28 32 36 40 40 40 41 42 44 49 51 52 53 54 55 57 59 61 58 54 53 52 52
20 22 23 25 29 32 35 36 30 15 15 7 7 7 8 8 7 8 11 14 17 22 27 32 34 35 35 37 37 40 42 45 47 50 51 52 53 55 57 58 56 51 50
17 18 22 25 29 32 35 36 20 10 10 2 1 3 4 5 6 7 9 10 12 14 18 23 27 29 30 31 32 32 34 35 37 39 41 43 44 47 49 48 52 48 49
13 16 19 22 25 29 34 33 18 15 7 6 2 2 3 4 6 8 10 11 11 12 12 13 16 19 23 27 30 32 34 35 37 38 39 40 42 42 41 44 46 47 46
13 13 15 18 22 26 28 27 24 19 12 7 7 5 2 4 5 6 9 9 10 13 14 14 15 16 18 21 25 27 29 31 32 34 36 38 39 42 43 43 42 43 45
12 12 14 15 17 20 22 21 21 21 19 14 7 6 6 6 7 9 10 13 11 7 9 11 13 16 18 21 24 26 28 30 32 34 36 36 36 38 42 43 43 40 39
10 11 13 13 14 15 17 18 18 18 20 19 18 16 14 12 10 9 7 6 8 8 10 11 12 14 16 18 20 22 25 29 31 32 32 31 29 31 34 36 35 37 37
9 10 11 12 12 13 14 16 16 17 19 19 20 20 18 17 16 16 12 9 5 8 12 13 15 17 18 19 20 23 22 22 23 27 23 25 25 26 28 29 27 34 33
9 10 11 11 11 12 13 14 15 16 16 17 17 17 18 16 16 13 13 13 14 12 9 4 6 13 18 21 23 23 21 21 20 18 19 21 22 22 21 23 23 27 31
9 9 10 11 11 12 11 11 12 13 14 14 14 14 13 13 13 13 12 11 10 9 10 12 10 5 4 6 10 12 15 16 16 16 16 18 18 20 20 24 26 27 28
10 10 10 10 10 11 10 10 10 10 10 10 11 11 12 12 12 12 11 10 10 10 9 8 8 9 7 7 8 9 11 15 18 20 21 21 19 19 23 24 27 29 31
11 12 12 13 12 12 12 11 10 10 10 10 10 10 10 11 12 12 12 12 12 11 10 9 7 7 8 6 3 4 4 8 10 8 14 18 21 20 22 24 26 25 29
15 16 15 16 16 15 15 15 14 14 13 13 13 14 14 14 14 14 14 14 14 13 13 13 12 11 10 10 10 11 11 12 12 11 11 13 15 16 16 18 21 23 25
19 20 18 18 20 18 17 17 17 17 17 17 17 17 17 17 17 17 17 17 17 17 17 17 17 16 15 14 14 15 15 15 16 16 16 17 17 18 19 20 22 24 26
22 23 22 21 21 23 20 20 22 21 20 20 21 21 21 21 21 21 22 21 22 22 22 22 22 22 22 21 20 20 20 20 20 20 20 20 20 20 20 21 22 23 24
27 27 26 24 24 28 25 24 26 24 24 23 25 25 25 26 26 26 26 25 25 25 26 26 26 26 26 26 25 24 24 24 24 24 24 24 24 24 24 24 25 26 27
29 30 29 28 27 31 29 27 28 27 28 28 28 29 29 30 30 29 29 29 29 28 28 28 28 28 29 29 29 29 29 29 29 29 28 27 26 26 27 28 30 31 31
Wind_Direction
274 273 275 277 277 275 273 271 267 265 264 260 259 257 253 253 251 249 250 251 252 252 251 251 251 253 255 252 252 252 252 254 258 264 268 268 265 259 261 260 262 263 262
279 281 281 282 283 283 283 280 279 275 270 264 259 257 256 254 253 251 249 250 252 253 253 253 251 251 253 254 254 252 252 251 254 259 264 267 260 258 259 259 260 264 263
287 287 286 286 285 285 283 281 279 277 273 270 268 265 262 259 257 254 252 250 251 251 251 252 252 250 250 251 252 254 252 253 252 252 256 262 265 261 258 262 258 256 256
298 297 296 294 290 286 281 278 275 274 272 270 268 268 267 265 262 260 257 254 252 251 251 251 252 252 251 250 250 250 255 253 252 251 255 258 264 267 262 262 255 256 253
301 300 303 309 311 305 297 285 276 271 269 268 269 267 265 266 262 258 258 257 253 253 251 251 251 251 251 252 251 250 249 247 257 255 252 258 258 256 261 261 256 258 259
307 316 323 320 321 317 316 309 290 277 271 269 267 267 268 264 259 259 257 253 251 250 251 251 251 251 251 251 251 250 251 250 250 255 254 255 254 257 260 267 267 251 266
325 325 326 326 336 340 338 326 309 284 274 271 273 272 270 263 257 256 256 254 247 245 246 248 250 252 252 251 251 251 250 249 249 250 251 252 255 257 256 264 267 257 264
327 336 340 340 348 348 345 334 327 298 297 268 257 258 279 276 262 256 258 259 253 246 243 243 246 247 249 250 251 251 251 250 249 249 249 252 255 256 256 258 264 267 258
333 343 351 353 345 344 340 338 338 325 325 282 254 267 274 272 269 265 260 258 254 248 245 244 245 247 247 248 249 249 249 250 250 251 251 252 254 256 258 259 260 263 267
345 345 342 341 340 339 336 336 335 329 329 301 264 262 269 270 267 262 260 256 252 247 244 244 247 250 250 248 248 249 248 248 249 251 252 253 253 255 256 259 259 261 261
344 339 341 341 344 340 339 337 330 323 324 295 276 280 284 297 297 293 283 271 261 252 248 246 248 250 251 251 250 250 251 251 250 251 253 253 254 255 257 257 259 259 263
339 337 345 347 346 344 346 350 359 356 342 322 287 274 280 295 309 303 293 285 277 269 262 258 257 257 255 254 253 253 254 256 256 256 256 257 257 256 257 256 257 260 258
330 345 344 349 349 351 357 9 39 27 27 12 27 257 278 285 297 294 291 292 288 282 275 270 262 256 252 252 254 256 257 259 260 260 259 259 259 259 259 258 257 255 257
335 349 350 355 351 357 7 17 33 42 53 51 339 330 330 308 300 300 304 293 282 262 266 265 262 260 260 261 261 263 264 263 262 263 263 261 259 257 255 255 258 258 256
332 344 348 354 355 0 12 22 33 45 49 52 34 7 348 326 315 300 275 280 289 265 262 260 261 263 264 266 267 270 272 272 270 267 266 268 268 265 261 261 254 254 253
328 335 343 351 1 3 12 24 34 38 42 51 60 66 67 59 47 41 9 319 290 275 269 266 266 270 273 269 264 266 275 275 274 272 268 265 266 267 264 261 265 256 255
323 330 337 350 2 10 15 19 27 29 34 33 32 30 36 41 45 42 40 36 353 275 268 264 260 259 263 266 272 272 276 279 283 272 271 264 264 266 264 255 248 250 254
311 323 335 343 353 8 14 17 20 21 26 30 28 25 24 25 30 34 32 33 33 36 32 355 267 264 259 259 262 265 270 277 282 273 263 258 262 264 258 248 245 250 251
306 319 328 332 340 349 360 9 12 15 18 19 19 16 15 15 17 18 20 17 13 11 9 15 22 10 337 280 272 272 269 277 277 274 272 268 267 266 268 262 260 268 271
298 303 306 311 322 330 338 352 358 1 4 4 7 4 1 2 3 3 3 2 359 357 358 350 344 355 6 353 339 326 305 290 279 268 263 264 263 263 260 262 263 262 262
283 287 294 299 303 310 318 326 331 336 339 342 343 342 342 343 344 344 344 341 340 338 336 331 329 323 316 314 313 296 321 315 311 321 269 266 257 253 256 259 258 275 265
277 280 285 289 293 298 305 311 315 317 316 317 320 323 326 329 329 328 326 325 323 321 319 317 315 313 310 306 301 299 297 293 292 291 278 270 269 269 272 270 271 272 273
277 281 283 286 288 292 296 299 298 297 299 302 305 308 311 311 311 310 309 309 311 311 312 311 310 308 305 302 298 295 292 289 288 287 285 283 280 278 276 273 271 271 271
271 273 275 276 280 283 285 285 283 284 290 294 298 298 297 297 297 299 302 305 307 309 310 310 310 309 308 307 305 302 298 294 291 288 287 286 285 284 284 284 285 286 286
270 271 274 277 278 279 281 283 283 289 289 290 289 289 291 293 295 296 299 301 302 303 304 305 306 307 305 304 301 298 294 292 291 291 291 292 292 293 294 296 297 297 296
273 274 276 275 275 276 281 282 285 288 287 286 287 289 290 291 293 296 298 299 299 299 299 297 296 295 295 295 295 295 295 295 296 295 294 292 292 293 297 301 304 304 304